{"data":{"norad_id":56723,"intl_designator":"2023-068P","name":"ONEWEB-0696","alt_names":[],"object_type":"PAYLOAD","status":"ACTIVE","operator":null,"country":"UK","launch_date":"2023-05-20","launch_site_code":"AFWTR","launch_vehicle":null,"mission":null,"orbit_class":"UNKNOWN","rcs_meters":null,"size_class":null,"mass_kg":null,"dimensions":null,"purposes":["comms"],"wikipedia_slug":null,"has_3d_model":false,"image_url":null,"decayed_at":null,"tle_current":{"epoch":"2026-05-24T21:34:42.971808Z","epoch_age_seconds":77131,"freshness":"FRESH","line1":"1 56723U 23068P   26144.89910847 -.00000170  00000+0 -48578-3 0  9999","line2":"2 56723  87.8988 263.8625 0001599  89.5450 270.5863 13.15546740146301","mean_motion":13.1554674,"eccentricity":0.0001599,"inclination_deg":87.8988,"raan_deg":263.8625,"arg_perigee_deg":89.545,"mean_anomaly_deg":270.5863,"bstar":-0.00048578,"rev_number":14630,"period_min":109.46019295369,"perigee_km":1200.5656916595,"apogee_km":1202.989748387,"semimajor_km":7579.9147200233,"source":"CELESTRAK","updated_at":"2026-05-25T13:38:22.746771Z"}}}